Fort Polk, LA

11:51 PM CDT on October 22, 2019 (GMT -0500)
Fort Polk

Weather History for KAQV - August, 2019

Change the Weather History Date:

Sunday, August 25, 2019

  Actual Average (WUND) Record (WUND)
Temperature  
Mean Temperature 80 °F -  
Max Temperature 86 °F - - (-1)
Min Temperature 75 °F - - (-1)
Cooling Degree Days 16    
Growing Degree Days 30 (Base 50)    
Moisture  
Dew Point 74 °F    
Average Humidity 89    
Maximum Humidity 96    
Minimum Humidity 70    
Precipitation  
Precipitation 0.09 in - - ()
Sea Level Pressure  
Sea Level Pressure 29.86 in    
Wind  
Wind Speed 3 mph (South)    
Max Wind Speed 6 mph    
Max Gust Speed -    
Visibility 9 miles    
Events Rain    
Averages and records for this station are not official NWS values.
T = Trace of Precipitation, MM = Missing Value Source: NWS Daily Summary

Daily Weather History Graph

Daily Weather History Graph

Search for Another Location

Airport or City:

Astronomy

Aug. 25, 2019 Rise Set
Actual Time 6:44 AM CDT 7:45 PM CDT
Civil Twilight 6:19 AM CDT 8:10 PM CDT
Nautical Twilight 5:49 AM CDT 8:40 PM CDT
Astronomical Twilight 5:19 AM CDT 9:10 PM CDT
Moon 1:31 AM CDT (8/25) 3:54 PM CDT (8/25)
Length of Visible Light 13h 50m
Length of Day
13h 00m
Waning Crescent, 29% of the Moon is Illuminated
Aug 25
Waning Crescent
Aug 30
New
Sep 5
First Quarter
Sep 13
Full
Sep 21
Last Quarter

Hourly Weather History & Observations

Time (CDT) Temp. Heat Index Dew Point Humidity Pressure Visibility Wind Dir Wind Speed Gust Speed Precip Events Conditions
12:50 AM 75.2 °F - 73.4 °F 94% 29.92 in 10.0 mi SSE 3.5 mph - N/A   Overcast
12:56 AM 75.0 °F - 73.0 °F 94% 29.91 in 10.0 mi Calm Calm - N/A   Overcast
1:56 AM 75.0 °F - 73.0 °F 94% 29.91 in 10.0 mi Variable 4.6 mph - N/A   Overcast
2:09 AM 75.9 °F - 73.0 °F 91% 29.91 in 10.0 mi Variable 3.5 mph - N/A   Overcast
2:56 AM 75.9 °F - 73.0 °F 91% 29.89 in 10.0 mi Variable 3.5 mph - N/A   Overcast
3:09 AM 75.9 °F - 73.0 °F 91% 29.90 in 10.0 mi SSE 4.6 mph - N/A   Overcast
3:56 AM 75.0 °F - 73.0 °F 94% 29.88 in 10.0 mi Calm Calm - N/A   Overcast
4:12 AM 75.0 °F - 73.0 °F 94% 29.89 in 10.0 mi Calm Calm - N/A   Mostly Cloudy
4:56 AM 75.0 °F - 73.0 °F 94% 29.88 in 10.0 mi Variable 3.5 mph - N/A   Overcast
5:56 AM 75.0 °F - 73.0 °F 94% 29.87 in 10.0 mi Variable 4.6 mph - N/A   Overcast
7:56 AM 75.9 °F - 72.0 °F 87% 29.89 in 10.0 mi Calm Calm - N/A   Overcast
8:03 AM 75.9 °F - 73.0 °F 91% 29.90 in 10.0 mi Variable 4.6 mph - N/A   Overcast
8:15 AM 75.9 °F - 73.0 °F 91% 29.90 in 10.0 mi Calm Calm - N/A   Overcast
8:23 AM 77.0 °F - 73.0 °F 88% 29.90 in 10.0 mi Calm Calm - N/A   Overcast
8:56 AM 78.1 °F - 73.0 °F 84% 29.90 in 7.0 mi Calm Calm - 0.00 in Rain Light Rain
9:54 AM 78.8 °F - 73.4 °F 83% 29.91 in 10.0 mi Variable 3.5 mph - 0.00 in   Overcast
9:56 AM 78.1 °F - 73.9 °F 87% 29.90 in 10.0 mi Variable 3.5 mph - 0.00 in   Overcast
10:09 AM 78.1 °F - 73.9 °F 87% 29.91 in 10.0 mi South 5.8 mph - N/A   Mostly Cloudy
10:56 AM 77.0 °F - 73.9 °F 90% 29.91 in 10.0 mi Calm Calm - N/A   Overcast
11:56 AM 77.0 °F - 75.0 °F 94% 29.91 in 10.0 mi Calm Calm - 0.01 in Rain Light Rain
12:39 PM 77.0 °F - 75.0 °F 94% 29.90 in 2.0 mi Variable 3.5 mph - 0.07 in Rain Rain
12:53 PM 77.0 °F - 75.2 °F 94% 29.89 in 6.0 mi Calm Calm - 0.07 in   Overcast
12:56 PM 77.0 °F - 75.0 °F 94% 29.88 in 5.0 mi Variable 3.5 mph - 0.07 in Rain Light Rain
1:56 PM 80.1 °F 85.4 °F 75.9 °F 87% 29.86 in 10.0 mi South 3.5 mph - 0.01 in   Mostly Cloudy
2:56 PM 82.0 °F 88.6 °F 75.0 °F 79% 29.84 in 10.0 mi Variable 3.5 mph - N/A   Overcast
3:37 PM 82.9 °F 90.2 °F 75.0 °F 77% 29.83 in 10.0 mi Variable 3.5 mph - N/A   Overcast
3:56 PM 86.0 °F 95.1 °F 75.0 °F 70% 29.82 in 10.0 mi Calm Calm - N/A   Mostly Cloudy
4:56 PM 81.0 °F 87.3 °F 75.9 °F 85% 29.81 in 10.0 mi Variable 3.5 mph - N/A   Mostly Cloudy
5:04 PM 81.0 °F 87.3 °F 75.9 °F 85% 29.82 in 10.0 mi Variable 4.6 mph - N/A   Overcast
5:14 PM 81.0 °F 87.3 °F 75.9 °F 85% 29.82 in 10.0 mi Variable 3.5 mph - N/A   Mostly Cloudy
5:24 PM 82.0 °F 89.4 °F 75.9 °F 82% 29.81 in 10.0 mi Variable 3.5 mph - N/A   Mostly Cloudy
5:40 PM 82.0 °F 89.4 °F 75.9 °F 82% 29.80 in 10.0 mi Variable 5.8 mph - N/A   Scattered Clouds
5:56 PM 82.0 °F 88.6 °F 75.0 °F 79% 29.79 in 10.0 mi Variable 4.6 mph - N/A   Partly Cloudy
6:46 PM 82.0 °F 89.4 °F 75.9 °F 82% 29.79 in 10.0 mi Variable 3.5 mph - N/A   Overcast
6:56 PM 82.0 °F 89.4 °F 75.9 °F 82% 29.77 in 10.0 mi Variable 5.8 mph - N/A   Mostly Cloudy
7:05 PM 81.0 °F 87.3 °F 75.9 °F 85% 29.78 in 10.0 mi Variable 4.6 mph - N/A   Mostly Cloudy
7:18 PM 81.0 °F 86.7 °F 75.0 °F 82% 29.78 in 10.0 mi South 5.8 mph - N/A   Scattered Clouds
7:56 PM 79.0 °F - 75.0 °F 88% 29.79 in 10.0 mi South 3.5 mph - N/A   Clear
8:56 PM 77.0 °F - 75.0 °F 94% 29.80 in 10.0 mi Calm Calm - N/A   Clear
9:56 PM 77.0 °F - 73.9 °F 90% 29.82 in 10.0 mi South 3.5 mph - N/A   Clear
10:23 PM 75.9 °F - 73.9 °F 94% 29.84 in 9.0 mi Calm Calm - N/A   Scattered Clouds
10:32 PM 75.9 °F - 73.9 °F 94% 29.84 in 8.0 mi Calm Calm - N/A   Mostly Cloudy
10:54 PM 75.2 °F - 73.4 °F 94% 29.85 in 8.0 mi Calm Calm - N/A   Scattered Clouds
10:56 PM 75.9 °F - 73.9 °F 94% 29.84 in 8.0 mi Calm Calm - N/A   Scattered Clouds
11:39 PM 75.9 °F - 73.9 °F 94% 29.85 in 5.0 mi Calm Calm - N/A   Mostly Cloudy
11:56 PM 75.0 °F - 73.9 °F 96% 29.85 in 5.0 mi Calm Calm - N/A   Overcast